Location: Newark
(40.7830°N, 8.7430°E)
Time: 12:35:45
(UTC+00:00)

ISS - Pass Details

Date: 19 September 2019
Orbit: 411 x 421 km, 51.6° (Epoch: 20 October)

Event Time Altitude Azimuth Distance (km) Brightness Sun altitude
Rises 20:05:51 0° 259° (W) 2,336 0.7 -29.3°
Reaches altitude 10° 20:08:06 10° 271° (W) 1,476 -0.3 -29.6°
Enters shadow 20:08:34 13° 276° (W) 1,315 -0.6 -29.7°
